Regional Weather Roundup
Issued by NWS Sioux Falls, SD

Home | Current Version | Previous Version | Graphics & Text | Print | Product List | Glossary On
Versions: 1 2 3 4 5 6 7 8 9 10 11 12 13 14 15 16 17 18 19 20 21 22 23 24 25 26 27 28 29 30 31 32 33 34 35 36 37 38 39 40 41 42 43 44 45 46 47 48 49 50
000
ASUS43 KFSD 171310
RWRFSD

WEATHER ROUNDUP FOR SE SOUTH DAKOTA/SW MINNESOTA/NW IOWA
NATIONAL WEATHER SERVICE SIOUX FALLS SD
700 AM CST TUE JAN 17 2017

NOTE: "FAIR" INDICATES FEW OR NO CLOUDS BELOW 12,000 FEET WITH NO
SIGNIFICANT WEATHER AND OR OBSTRUCTIONS TO VISIBILITY.


SDZ038>040-050-052>070-171400-
SOUTHEAST SOUTH DAKOTA

CITY           SKY/WX    TMP DP  RH WIND       PRES   REMARKS
BROOKINGS      CLOUDY     6   3  87 N3        29.99R
CHAMBERLAIN    CLOUDY    14  11  90 W7        30.04S WCI   3
HURON          CLOUDY     2   0  91 W3        30.04R
MADISON          N/A      9   9 100 NW9         N/A  WCI  -5
MITCHELL       CLOUDY    10   7  87 W3        30.06S
SIOUX FALLS    CLOUDY    11   9  92 W6        30.02R WCI   1
WINNER         FAIR      18  13  80 W8        30.04S WCI   8
YANKTON        CLOUDY    16   9  73 CALM      30.06R
$$

MNZ071-072-080-081-089-090-097-098-171400-
SOUTHWEST MINNESOTA

CITY           SKY/WX    TMP DP  RH WIND       PRES   REMARKS
FAIRMONT       FOG       28  27  96 NW13      29.96S VSB 1/2 WCI  17
JACKSON        CLOUDY    25  25 100 NW8       29.97R FOG     WCI  16
LUVERNE        FOG       23  21  93 NW7       29.99S VSB 3/4 WCI  15
MARSHALL       CLOUDY    19  14  81 NW12      30.00S WCI   7
MONTEVIDEO     CLOUDY    18  14  86 N8        30.03R WCI   7
PIPESTONE      FOG       18  16  93 CALM      29.97R VSB 1/4
REDWOOD FALLS  CLOUDY    23  19  85 NW8       29.98S WCI  14
TRACY          CLOUDY    22  19  87 NW7       29.99S WCI  13
WINDOM         CLOUDY    23  23 100 NW6       29.97R FOG     WCI  16
WORTHINGTON    CLOUDY    26  24  92 NW9       29.97  FOG     WCI  17
$$

IAZ001>003-012>014-020>022-031-032-NEZ013-014-SDZ071-171400-
NORTHWEST IOWA

CITY           SKY/WX    TMP DP  RH WIND       PRES   REMARKS
CHEROKEE       CLOUDY    28  28 100 NW6       30.00R FOG     WCI  22
DENISON        CLOUDY    28  28 100 NW7       29.98R FOG     WCI  21
ESTHERVILLE    FOG       27  27 100 NW13      29.96R VSB 1   WCI  16
LE MARS        CLOUDY    21  18  86 W6        30.03F WCI  14
ORANGE CITY    CLOUDY    21  21 100 W6        30.00R FOG     WCI  14
SHELDON        CLOUDY    27  27 100 NW9       29.97S FOG     WCI  17
SIOUX CITY     CLOUDY    21  16  81 NW15G23   30.03S WCI   8
SPENCER        CLOUDY    29  28  96 NW9       29.98R WCI  20
STORM LAKE     FOG       30  30 100 NW16      29.97R VSB 3/4 WCI  19
$$

ABBREVIATIONS USED IN REMARKS
   TC - TEMPERATURE IN CELSIUS
  WCI - WIND CHILL INDEX
   HX - HEAT INDEX
  VSB - VISIBILITY





USA.gov is the U.S. government's official web portal to all federal, state and local government web resources and services.